{"data":{"norad_id":66006,"epoch":"2026-09-20T06:16:58.632672Z","epoch_age_seconds":123650,"freshness":"FRESH","line1":"1 66006U 25232B   26263.26178973  .00013921  00000+0  42224-3 0  9996","line2":"2 66006  53.1578 276.7215 0000964  86.9317 273.1796 15.34409176 53263","mean_motion":15.34409176,"eccentricity":9.64e-5,"inclination_deg":53.1578,"raan_deg":276.7215,"arg_perigee_deg":86.9317,"mean_anomaly_deg":273.1796,"bstar":0.00042224,"rev_number":5326,"period_min":93.847196857483,"perigee_km":462.01651296721,"apogee_km":463.33542170732,"semimajor_km":6840.8129673373,"source":"CELESTRAK","updated_at":"2026-09-21T09:00:35.768306Z"}}